FENGYUN 1C DEB

Satellite information

Favourite Embed

Satellite Type and Status

DEBRISIN ORBIT

Key statistics

Satellite FENGYUN 1C DEB at a glance.

Uptime

9715

Days in orbit

Revolutions

≈ 14.0

Per day

Orbit

SSO

Sun Synchronous Orbit

Inclination

98.7

Latest

Satellite identification and parameters

Extended collection of information and parameters for FENGYUN 1C DEB.

Object identification

Identified? True

Debris? True

Object name: FENGYUN 1C DEB

International designator: 1999-025BBE

Object number (NORAD): 30964

Object ID (CCSDS): 30964

Country: PEOPLES REPUBLIC OF CHINA (PRC)

Current information (Y/N): Y

RCS size: SMALL

Orbital parameters

Period: 102.855 minutes

Inclination: 98.6541 deg

SMA: 7271.834 km

Apoapsis: 997.622 km

Periapsis: 789.776 km

RAAN: 265.5051 deg

Eccentricy: 0.01429116

Argument of periapsis: 19.463 deg

Mean anomaly: 135.8949 deg

Mean motion: 14.00028295 rev/day

Mean motion (dot): 0.00004344 rev/day2

B* drag term: 0.0027264481 1/REarth

Two-line elements (TLE)

Creation date: Nov. 5, 2025, 10:12 a.m.

Reference frame: TEME

Reference center: EARTH

Epoch: Oct. 22, 2025, 10:20 a.m. UTC

TLE line 0: 0 FENGYUN 1C DEB

TLE line 1: 1 30964U 99025BBE 25295.43098264 .00004344 00000-0 27264-2 0 9994

TLE line 2: 2 30964 98.6541 265.5051 0142912 19.4630 135.8949 14.00028295946776

Live tracking on map

Real-time ground track for satellite FENGYUN 1C DEB.

In-orbit conjunctions

A list of the most updated potential collisions computed for object FENGYUN 1C DEB.

Target Orbit TCA Probability of collision Miss distance Type
COSMOS 1607 LEO 2025-10-03 22:44:48 0.0001237122 854.0 (m) PAYLOAD
COSMOS 1344 LEO 2024-12-31 04:39:28 0.0001143766 686.0 (m) PAYLOAD
ALEXIS LEO 2024-11-29 19:59:50 0.0001125326 598.0 (m) PAYLOAD
SL-8 R/B LEO 2024-10-28 03:57:35 0.0001234208 602.0 (m) ROCKET BODY
SL-8 R/B LEO 2024-10-02 20:09:11 0.0002598276 216.0 (m) ROCKET BODY

Associated space launch

Chinese polar orbiting meteorological satellite

FENGYUN 1C DEB was lifted into orbit during the mission ‘Long March 4B | Feng Yun 1C’, on board a Long March 4B space rocket.

The launch took place on May 10, 1999, 1:33 a.m. from Launch Complex 7.

For more information about the launch, click the button.

Launch to space Long March 4B | Feng Yun 1C
Long March 4B | Feng Yun 1C

Agency: N/A

Status: Launch Successful

Launch date: May 10, 1999, 1:33 a.m. UTC

Rocket: Long March 4B

Launch pad: Launch Complex 7

Location: Taiyuan Satellite Launch Center, People's Republic of China

...

Latest news about this satellite

There are no fresh news available about this satellite. Check back as we update our databases every day.


Newsletter sign-up

Weekly statistics, charts and insights to help you stay on top of the space industry.